Weather History for New Bedford, MA

Change the Weather History Date:

Thursday, December 27, 2012

  Actual Average Record
Temperature  
Mean Temperature 42 °F -  
Max Temperature 51 °F 36 °F 59 °F (1973)
Min Temperature 32 °F 22 °F 2 °F (1989)
Degree Days  
Heating Degree Days 24    
Moisture  
Dew Point 38 °F    
Average Humidity 90    
Maximum Humidity 100    
Minimum Humidity 81    
Precipitation  
Precipitation 0.44 in - - ()
Sea Level Pressure  
Sea Level Pressure 29.42 in    
Wind  
Wind Speed 15 mph (NNW)    
Max Wind Speed 26 mph    
Max Gust Speed 43 mph    
Visibility 5 miles    
Events Rain , Snow    
Averages and records for this station are not official NWS values.
T = Trace of Precipitation, MM = Missing Value Source: NWS Daily Summary

Daily Weather History Graph

Daily Weather History Graph

Search for Another Location

Airport:

Trip Planner

Search our weather history database for the weather conditions in past years. The results will help you decide how hot, cold, wet, or windy it might be!

Date:

Astronomy

Dec. 27, 2012 Rise Set
Actual Time 7:10 AM EST 4:20 PM EST
Civil Twilight 6:38 AM EST 4:51 PM EST
Nautical Twilight 6:03 AM EST 5:26 PM EST
Astronomical Twilight 5:29 AM EST 6:00 PM EST
Moon 4:01 PM EST (12/27) 6:18 AM EST (12/27)
Length of Visible Light 10h 13m
Length of Day
9h 10m
Full, 100% of the Moon is Illuminated
Dec 27
Full
Dec 28
Full
Jan 4
Last Quarter
Jan 11
New
Jan 18
First Quarter

Hourly Weather History & Observations

Time (EST) Temp. Windchill Dew Point Humidity Pressure Visibility Wind Dir Wind Speed Gust Speed Precip Events Conditions
12:53 AM 37.0 °F 26.2 °F 34.0 °F 89% 29.76 in 7.0 mi ENE 21.9 mph 27.6 mph 0.03 in Rain Rain
1:05 AM 37.4 °F 27.8 °F 33.8 °F 87% 29.73 in 8.0 mi ENE 17.3 mph 27.6 mph 0.01 in Rain Light Rain
1:53 AM 39.0 °F 29.3 °F 36.0 °F 89% 29.67 in 9.0 mi ENE 19.6 mph 27.6 mph 0.03 in Rain Light Rain
2:45 AM 39.2 °F 29.3 °F 37.4 °F 93% 29.61 in 2.5 mi ENE 20.7 mph 33.4 mph 0.16 in Rain Heavy Rain
2:53 AM 41.0 °F 31.1 °F 37.9 °F 89% 29.58 in 3.0 mi ENE 23.0 mph 33.4 mph 0.19 in Rain Heavy Rain
3:02 AM 41.0 °F 30.5 °F 37.4 °F 87% 29.53 in 4.0 mi East 26.5 mph 35.7 mph 0.02 in Rain Rain
3:23 AM 42.8 °F 33.3 °F 39.2 °F 87% 29.49 in 4.0 mi ENE 24.2 mph 38.0 mph 0.07 in Rain Light Rain
3:36 AM 42.8 °F 33.8 °F 39.2 °F 87% 29.48 in 7.0 mi ENE 21.9 mph 36.8 mph 0.07 in Rain Light Rain
3:53 AM 44.1 °F 35.4 °F 41.0 °F 89% 29.49 in 10.0 mi East 21.9 mph 39.1 mph 0.07 in   Overcast
4:53 AM 46.0 °F 38.3 °F 42.1 °F 86% 29.39 in 10.0 mi ENE 20.7 mph 38.0 mph 0.00 in   Overcast
5:53 AM 48.9 °F - 45.0 °F 86% 29.36 in 10.0 mi East 19.6 mph 39.1 mph 0.06 in   Overcast
6:53 AM 48.9 °F - 45.0 °F 86% 29.32 in 6.0 mi East 24.2 mph 42.6 mph 0.00 in Rain Light Rain
7:53 AM 48.9 °F - 45.0 °F 86% 29.27 in 7.0 mi East 19.6 mph 35.7 mph 0.00 in   Overcast
8:53 AM 50.0 °F - 46.9 °F 89% 29.26 in 3.0 mi East 9.2 mph 23.0 mph 0.01 in Rain Light Rain
9:01 AM 50.0 °F - 46.4 °F 87% 29.26 in 2.0 mi East 12.7 mph - 0.01 in Rain Rain
9:21 AM 50.0 °F - 48.2 °F 94% 29.26 in 2.0 mi East 8.1 mph 18.4 mph 0.03 in Rain Light Rain
9:53 AM 50.0 °F - 48.2 °F 94% 29.26 in 3.0 mi ENE 3.5 mph - N/A   Overcast
10:50 AM 48.2 °F - 48.2 °F 100% 29.26 in 2.0 mi SSW 4.6 mph - 0.00 in Rain Light Rain
10:53 AM 48.9 °F - 48.0 °F 97% 29.26 in 1.8 mi SSW 5.8 mph - 0.00 in Rain Light Rain
11:14 AM 50.0 °F - 48.2 °F 94% 29.24 in 3.0 mi WSW 4.6 mph - 0.02 in Rain Light Rain
11:53 AM 51.1 °F - 48.9 °F 92% 29.22 in 8.0 mi SW 5.8 mph - 0.02 in   Overcast
12:53 PM 51.1 °F - 48.0 °F 89% 29.20 in 5.0 mi SSW 6.9 mph - N/A   Overcast
1:04 PM 50.0 °F - 48.2 °F 94% 29.20 in 2.0 mi WSW 5.8 mph - 0.00 in Rain Light Rain
1:11 PM 50.0 °F - 48.2 °F 94% 29.20 in 1.8 mi WSW 4.6 mph - 0.01 in Rain Light Rain
1:36 PM 50.0 °F - 48.2 °F 94% 29.20 in 1.8 mi WSW 5.8 mph - 0.02 in Rain Light Rain
1:53 PM 50.0 °F - 48.0 °F 93% 29.21 in 1.8 mi West 5.8 mph - 0.02 in   Overcast
2:00 PM 48.2 °F - 46.4 °F 93% 29.21 in 2.0 mi WNW 6.9 mph - N/A   Overcast
2:53 PM 48.0 °F - 46.0 °F 93% 29.23 in 8.0 mi NW 5.8 mph - N/A   Overcast
3:53 PM 44.1 °F 39.5 °F 41.0 °F 89% 29.25 in 8.0 mi NNW 8.1 mph - N/A   Overcast
4:53 PM 39.0 °F 31.8 °F 37.0 °F 93% 29.31 in 3.0 mi NW 11.5 mph 20.7 mph 0.00 in   Overcast
5:53 PM 37.0 °F 29.3 °F 35.1 °F 93% 29.34 in 6.0 mi NW 11.5 mph 20.7 mph N/A   Overcast
6:43 PM 35.6 °F 28.6 °F 33.8 °F 93% 29.39 in 10.0 mi NW 9.2 mph 21.9 mph N/A   Overcast
6:53 PM 35.1 °F 26.9 °F 32.0 °F 89% 29.40 in 9.0 mi NW 11.5 mph 25.3 mph N/A   Overcast
7:17 PM 35.6 °F 28.0 °F 32.0 °F 87% 29.42 in 5.0 mi NW 10.4 mph 21.9 mph 0.00 in Rain Light Rain
7:40 PM 33.8 °F 25.8 °F 30.2 °F 87% 29.44 in 7.0 mi NW 10.4 mph 17.3 mph N/A Rain Light Rain
7:53 PM 34.0 °F 26.6 °F 30.9 °F 89% 29.46 in 9.0 mi NW 9.2 mph 18.4 mph 0.01 in   Overcast
8:17 PM 33.8 °F 28.6 °F 30.2 °F 87% 29.48 in 2.5 mi NW 5.8 mph 19.6 mph 0.00 in Snow Light Snow
8:23 PM 33.8 °F 25.3 °F 30.2 °F 87% 29.48 in 1.5 mi NW 11.5 mph 20.7 mph 0.00 in Snow Light Snow
8:30 PM 33.8 °F 25.8 °F 30.2 °F 87% 29.49 in 1.2 mi NW 10.4 mph 20.7 mph 0.00 in Snow Light Snow
8:53 PM 33.1 °F 26.1 °F 30.0 °F 89% 29.50 in 1.2 mi NW 8.1 mph 20.7 mph 0.00 in Snow Light Snow
9:01 PM 32.0 °F 23.0 °F 30.2 °F 93% 29.50 in 1.0 mi NW 11.5 mph 24.2 mph 0.00 in Snow Light Snow
9:07 PM 32.0 °F 22.1 °F 30.2 °F 93% 29.51 in 0.8 mi NW 13.8 mph 24.2 mph 0.00 in Snow Light Snow
9:13 PM 32.0 °F 23.6 °F 30.2 °F 93% 29.51 in 1.0 mi NW 10.4 mph 23.0 mph 0.00 in Snow Light Snow
9:36 PM 32.0 °F 23.0 °F 30.2 °F 93% 29.53 in 1.8 mi NW 11.5 mph 23.0 mph 0.00 in Snow Light Snow
9:41 PM 32.0 °F 24.2 °F 28.4 °F 87% 29.53 in 2.0 mi NW 9.2 mph 23.0 mph 0.00 in Snow Light Snow
9:44 PM 32.0 °F 24.2 °F 30.2 °F 93% 29.54 in 2.0 mi NW 9.2 mph 23.0 mph 0.00 in Snow Light Snow
9:53 PM 32.0 °F 22.5 °F 28.9 °F 88% 29.55 in 3.0 mi NW 12.7 mph 21.9 mph 0.00 in Snow Light Snow
10:08 PM 32.0 °F 23.6 °F 30.2 °F 93% 29.55 in 2.0 mi NNW 10.4 mph 19.6 mph 0.00 in Snow Light Snow
10:20 PM 32.0 °F 24.2 °F 28.4 °F 87% 29.56 in 6.0 mi NW 9.2 mph 24.2 mph 0.00 in Snow Light Snow
10:30 PM 32.0 °F 23.6 °F 28.4 °F 87% 29.56 in 5.0 mi NW 10.4 mph 21.9 mph 0.00 in Snow Light Snow
10:53 PM 32.0 °F 23.6 °F 28.0 °F 85% 29.57 in 10.0 mi NW 10.4 mph 21.9 mph 0.00 in   Overcast
11:45 PM 33.8 °F 25.8 °F 28.4 °F 81% 29.59 in 10.0 mi WNW 10.4 mph - N/A   Mostly Cloudy
11:53 PM 33.1 °F 25.5 °F 28.9 °F 85% 29.60 in 10.0 mi WNW 9.2 mph - N/A   Overcast